When you browse on this site, cookies collect data to enhance your experience and personalize the content and advertising you see.
Visit our Privacy Policy to learn more. By continuing to use the site, you agree to this use of cookies and data.
  • In Spain
  • List of Countries
  • For 7 days
  • Water Temperature
  • Weather Map
  • Weather Widgets
  • user-avatar
    Login

    Hourly Weather Ali Bayramli

    Today, 29 May, Friday

    Time Temperature Precipitation Wind Pressure Humidity
    00:00 +22°C° 0 mm 1 mps 757 mmHg 65%
    01:00 +21°C° 0 mm 1 mps 757 mmHg 67%
    02:00 +21°C° 0 mm 1 mps 756 mmHg 68%
    03:00 +20°C° 0 mm 1 mps 756 mmHg 70%
    04:00 +21°C° 0 mm 1 mps 756 mmHg 67%
    05:00 +22°C° 0 mm 1 mps 756 mmHg 64%
    06:00 +23°C° 0 mm 1 mps 756 mmHg 61%
    07:00 +25°C° 0 mm 1 mps 756 mmHg 54%
    08:00 +27°C° 0 mm 2 mps 756 mmHg 47%
    09:00 +29°C° 0 mm 2 mps 756 mmHg 40%
    10:00 +30°C° 0 mm 3 mps 755 mmHg 37%
    11:00 +33°C° 0 mm 3 mps 755 mmHg 34%
    12:00 +35°C° 0 mm 4 mps 755 mmHg 31%
    13:00 +35°C° 0 mm 5 mps 754 mmHg 31%
    14:00 +35°C° 0 mm 5 mps 753 mmHg 32%
    15:00 +35°C° 0 mm 6 mps 753 mmHg 32%
    16:00 +33°C° 0 mm 6 mps 753 mmHg 36%
    17:00 +32°C° 0 mm 6 mps 752 mmHg 40%
    18:00 +29°C° 0 mm 6 mps 752 mmHg 44%
    19:00 +29°C° 0 mm 5 mps 752 mmHg 46%
    20:00 +28°C° 0 mm 5 mps 752 mmHg 48%
    21:00 +27°C° 0 mm 4 mps 752 mmHg 50%
    22:00 +26°C° 0 mm 3 mps 752 mmHg 53%
    23:00 +26°C° 0 mm 2 mps 752 mmHg 56%

    Tomorrow, 30 May, Saturday

    Time Temperature Precipitation Wind Pressure Humidity
    00:00 +25°C° 0 mm 1 mps 752 mmHg 59%
    01:00 +24°C° 0 mm 1 mps 752 mmHg 62%
    02:00 +24°C° 0 mm 2 mps 752 mmHg 65%
    03:00 +23°C° 0 mm 2 mps 752 mmHg 68%
    04:00 +24°C° 0 mm 2 mps 752 mmHg 66%
    05:00 +24°C° 0 mm 2 mps 752 mmHg 64%
    06:00 +25°C° 0 mm 2 mps 753 mmHg 62%
    07:00 +27°C° 0 mm 3 mps 753 mmHg 55%
    08:00 +29°C° 0 mm 3 mps 753 mmHg 48%
    09:00 +32°C° 0 mm 4 mps 754 mmHg 41%
    10:00 +33°C° 0 mm 6 mps 754 mmHg 39%
    11:00 +34°C° 0 mm 9 mps 755 mmHg 37%
    12:00 +36°C° 0 mm 11 mps 755 mmHg 35%
    13:00 +36°C° 0 mm 11 mps 755 mmHg 35%
    14:00 +34°C° 0 mm 11 mps 755 mmHg 36%
    15:00 +34°C° 0 mm 12 mps 755 mmHg 36%
    16:00 +33°C° 0 mm 11 mps 756 mmHg 37%
    17:00 +32°C° 0 mm 10 mps 756 mmHg 38%
    18:00 +31°C° 0 mm 10 mps 756 mmHg 40%
    19:00 +28°C° 0 mm 9 mps 757 mmHg 43%
    20:00 +27°C° 0 mm 8 mps 757 mmHg 46%
    21:00 +26°C° 0 mm 7 mps 758 mmHg 50%
    22:00 +24°C° 0 mm 6 mps 758 mmHg 52%
    23:00 +23°C° 0 mm 5 mps 758 mmHg 53%

    Day after tomorrow, 31 May, Sunday

    Time Temperature Precipitation Wind Pressure Humidity
    00:00 +23°C° 0 mm 5 mps 758 mmHg 55%
    01:00 +22°C° 0 mm 4 mps 758 mmHg 58%
    02:00 +22°C° 0 mm 4 mps 758 mmHg 61%
    03:00 +21°C° 0 mm 3 mps 758 mmHg 64%
    04:00 +21°C° 0 mm 3 mps 759 mmHg 63%
    05:00 +22°C° 0 mm 3 mps 759 mmHg 62%
    06:00 +22°C° 0 mm 3 mps 759 mmHg 61%
    07:00 +24°C° 0 mm 3 mps 759 mmHg 56%
    08:00 +26°C° 0 mm 3 mps 759 mmHg 50%
    09:00 +27°C° 0 mm 3 mps 759 mmHg 45%
    10:00 +29°C° 0 mm 2 mps 759 mmHg 42%
    11:00 +30°C° 0 mm 2 mps 759 mmHg 38%
    12:00 +32°C° 0 mm 1 mps 759 mmHg 34%
    13:00 +33°C° 0 mm 3 mps 759 mmHg 34%
    14:00 +33°C° 0 mm 5 mps 758 mmHg 33%
    15:00 +34°C° 0 mm 6 mps 758 mmHg 32%
    16:00 +32°C° 0 mm 7 mps 758 mmHg 35%
    17:00 +29°C° 0 mm 7 mps 758 mmHg 39%
    18:00 +27°C° 0 mm 8 mps 759 mmHg 42%
    19:00 +27°C° 0 mm 7 mps 759 mmHg 44%
    20:00 +26°C° 0 mm 6 mps 759 mmHg 46%
    21:00 +25°C° 0 mm 5 mps 760 mmHg 49%
    22:00 +23°C° 0 mm 4 mps 759 mmHg 51%
    23:00 +22°C° 0 mm 4 mps 759 mmHg 53%

    1 June, Monday

    Time Temperature Precipitation Wind Pressure Humidity
    00:00 +22°C° 0 mm 3 mps 759 mmHg 55%
    01:00 +21°C° 0 mm 3 mps 759 mmHg 57%
    02:00 +21°C° 0 mm 2 mps 759 mmHg 59%
    03:00 +20°C° 0 mm 2 mps 759 mmHg 62%
    04:00 +21°C° 0 mm 2 mps 759 mmHg 61%
    05:00 +21°C° 0 mm 2 mps 759 mmHg 59%
    06:00 +21°C° 0 mm 2 mps 759 mmHg 58%
    07:00 +24°C° 0 mm 2 mps 759 mmHg 52%
    08:00 +26°C° 0 mm 1 mps 759 mmHg 45%
    09:00 +27°C° 0 mm 1 mps 759 mmHg 39%
    10:00 +28°C° 0 mm 2 mps 758 mmHg 36%
    11:00 +30°C° 0 mm 2 mps 758 mmHg 33%
    12:00 +31°C° 0 mm 3 mps 757 mmHg 30%
    13:00 +32°C° 0 mm 4 mps 757 mmHg 29%
    14:00 +32°C° 0 mm 5 mps 756 mmHg 28%
    15:00 +32°C° 0 mm 6 mps 755 mmHg 28%
    16:00 +30°C° 0 mm 6 mps 755 mmHg 30%
    17:00 +29°C° 0 mm 6 mps 755 mmHg 32%
    18:00 +28°C° 0 mm 6 mps 754 mmHg 35%
    19:00 +26°C° 0 mm 5 mps 755 mmHg 40%
    20:00 +25°C° 0 mm 4 mps 755 mmHg 45%
    21:00 +24°C° 0 mm 3 mps 755 mmHg 50%
    22:00 +22°C° 0 mm 3 mps 754 mmHg 53%
    23:00 +21°C° 0 mm 2 mps 754 mmHg 57%

    2 June, Tuesday

    Time Temperature Precipitation Wind Pressure Humidity
    00:00 +22°C° 0 mm 1 mps 753 mmHg 60%
    01:00 +22°C° 0 mm 1 mps 753 mmHg 61%
    02:00 +21°C° 0 mm 1 mps 753 mmHg 63%
    03:00 +21°C° 0 mm 1 mps 753 mmHg 65%
    04:00 +21°C° 0 mm 1 mps 753 mmHg 63%
    05:00 +22°C° 0 mm 1 mps 753 mmHg 62%
    06:00 +23°C° 0 mm 2 mps 753 mmHg 60%
    07:00 +25°C° 0 mm 2 mps 753 mmHg 55%
    08:00 +27°C° 0 mm 2 mps 753 mmHg 49%
    09:00 +29°C° 0 mm 2 mps 753 mmHg 44%
    10:00 +30°C° 0 mm 2 mps 753 mmHg 39%
    11:00 +32°C° 0 mm 2 mps 752 mmHg 34%
    12:00 +35°C° 0 mm 2 mps 752 mmHg 30%
    13:00 +35°C° 0 mm 3 mps 752 mmHg 30%
    14:00 +35°C° 0 mm 5 mps 751 mmHg 30%
    15:00 +36°C° 0 mm 7 mps 751 mmHg 30%
    16:00 +34°C° 0 mm 7 mps 750 mmHg 35%
    17:00 +30°C° 0 mm 6 mps 750 mmHg 40%
    18:00 +28°C° 0 mm 6 mps 750 mmHg 45%
    19:00 +27°C° 0 mm 6 mps 750 mmHg 48%
    20:00 +26°C° 0 mm 7 mps 751 mmHg 52%
    21:00 +24°C° 0 mm 7 mps 751 mmHg 55%
    22:00 +23°C° 0 mm 6 mps 751 mmHg 52%
    23:00 +23°C° 0 mm 6 mps 751 mmHg 48%

    3 June, Wednesday

    Time Temperature Precipitation Wind Pressure Humidity
    00:00 +23°C° 0 mm 5 mps 751 mmHg 45%
    01:00 +23°C° 0 mm 5 mps 751 mmHg 48%
    02:00 +22°C° 0 mm 4 mps 752 mmHg 52%
    03:00 +22°C° 0 mm 4 mps 752 mmHg 55%
    04:00 +22°C° 0 mm 4 mps 753 mmHg 56%
    05:00 +23°C° 0 mm 4 mps 753 mmHg 58%
    06:00 +23°C° 0 mm 4 mps 753 mmHg 59%
    07:00 +26°C° 0 mm 4 mps 754 mmHg 53%
    08:00 +27°C° 0 mm 3 mps 754 mmHg 47%
    09:00 +29°C° 0 mm 3 mps 754 mmHg 41%
    10:00 +30°C° 0 mm 3 mps 754 mmHg 37%
    11:00 +33°C° 0 mm 3 mps 754 mmHg 33%
    12:00 +34°C° 0 mm 3 mps 754 mmHg 29%
    13:00 +33°C° 0 mm 5 mps 754 mmHg 31%
    14:00 +32°C° 0 mm 7 mps 754 mmHg 33%
    15:00 +32°C° 0 mm 8 mps 754 mmHg 35%
    16:00 +30°C° 0 mm 7 mps 754 mmHg 36%
    17:00 +29°C° 0 mm 7 mps 754 mmHg 38%
    18:00 +28°C° 0 mm 6 mps 755 mmHg 39%
    19:00 +26°C° 0 mm 5 mps 755 mmHg 44%
    20:00 +25°C° 0 mm 4 mps 756 mmHg 48%
    21:00 +23°C° 0 mm 4 mps 756 mmHg 53%
    22:00 +24°C° 0 mm 3 mps 756 mmHg 55%
    23:00 +22°C° 0 mm 3 mps 756 mmHg 57%
    Show more